QPF
0.01 0.01 0.00 0.00 0.00 0.00 0.01 0.01 0.00 0.01 0.01 0.02 0.02 0.03 0.02 0.02 0.02 0.01 0.01 0.01 0.01 0.00 0.00 0.00 0.01 0.01 0.01 0.04 0.05 0.04 0.04 0.04 0.04 0.03 0.06 0.08 0.07 0.06
0.00 0.00 0.00 0.00 0.00 0.00 0.00 0.00 0.00 0.00 0.01 0.02 0.03 0.04 0.02 0.02 0.02 0.02 0.01 0.00 0.00 0.00 0.01 0.00 0.01 0.01 0.01 0.01 0.02 0.04 0.04 0.03 0.04 0.04 0.05 0.06 0.06 0.06
0.00 0.00 0.00 0.00 0.00 0.00 0.00 0.00 0.00 0.01 0.01 0.02 0.03 0.03 0.02 0.02 0.02 0.02 0.02 0.01 0.01 0.00 0.01 0.01 0.00 0.00 0.00 0.01 0.02 0.03 0.04 0.03 0.03 0.03 0.03 0.03 0.03 0.04
0.00 0.00 0.00 0.00 0.00 0.00 0.00 0.00 0.00 0.00 0.01 0.01 0.02 0.03 0.02 0.01 0.01 0.02 0.02 0.02 0.01 0.01 0.02 0.02 0.01 0.01 0.00 0.01 0.02 0.03 0.04 0.04 0.02 0.02 0.03 0.03 0.02 0.02
0.00 0.00 0.00 0.00 0.00 0.00 0.00 0.00 0.00 0.01 0.01 0.01 0.01 0.02 0.02 0.02 0.02 0.02 0.02 0.01 0.02 0.02 0.02 0.03 0.03 0.02 0.01 0.01 0.00 0.02 0.04 0.05 0.04 0.01 0.01 0.02 0.02 0.02
0.00 0.00 0.00 0.00 0.01 0.00 0.00 0.00 0.00 0.00 0.01 0.03 0.03 0.03 0.03 0.02 0.02 0.03 0.03 0.01 0.01 0.01 0.01 0.01 0.03 0.03 0.02 0.01 0.01 0.01 0.01 0.02 0.04 0.03 0.02 0.01 0.02 0.02
0.00 0.00 0.00 0.00 0.00 0.00 0.00 0.00 0.00 0.00 0.01 0.02 0.01 0.01 0.01 0.01 0.02 0.04 0.01 0.01 0.01 0.01 0.01 0.01 0.02 0.02 0.01 0.01 0.01 0.00 0.01 0.01 0.01 0.01 0.01 0.01 0.01 0.01
0.00 0.00 0.00 0.01 0.01 0.00 0.00 0.00 0.00 0.00 0.00 0.00 0.00 0.00 0.00 0.01 0.02 0.02 0.00 0.00 0.01 0.01 0.01 0.00 0.01 0.01 0.01 0.01 0.00 0.00 0.00 0.01 0.01 0.01 0.01 0.01 0.01 0.01
0.00 0.00 0.00 0.00 0.00 0.00 0.00 0.00 0.00 0.00 0.00 0.00 0.00 0.00 0.00 0.01 0.01 0.01 0.00 0.01 0.01 0.01 0.00 0.00 0.00 0.01 0.01 0.01 0.00 0.00 0.00 0.01 0.01 0.02 0.02 0.02 0.01 0.02
0.00 0.00 0.00 0.00 0.00 0.00 0.00 0.00 0.00 0.00 0.00 0.00 0.00 0.00 0.00 0.00 0.01 0.02 0.01 0.00 0.01 0.01 0.00 0.00 0.00 0.01 0.01 0.00 0.00 0.00 0.01 0.01 0.02 0.02 0.04 0.06 0.03 0.03
0.00 0.00 0.00 0.00 0.00 0.00 0.00 0.00 0.00 0.00 0.00 0.00 0.00 0.01 0.01 0.01 0.01 0.02 0.01 0.00 0.00 0.01 0.01 0.00 0.01 0.01 0.01 0.01 0.00 0.01 0.01 0.01 0.03 0.02 0.05 0.08 0.07 0.07
0.00 0.00 0.00 0.00 0.00 0.00 0.00 0.00 0.00 0.00 0.00 0.00 0.00 0.01 0.01 0.01 0.01 0.02 0.02 0.00 0.00 0.00 0.00 0.00 0.00 0.01 0.03 0.02 0.01 0.01 0.01 0.01 0.02 0.03 0.04 0.06 0.08 0.07
0.00 0.00 0.00 0.00 0.00 0.00 0.00 0.00 0.00 0.00 0.00 0.00 0.00 0.01 0.01 0.00 0.01 0.02 0.03 0.01 0.00 0.00 0.00 0.00 0.00 0.01 0.04 0.02 0.01 0.01 0.01 0.01 0.01 0.03 0.03 0.04 0.06 0.06
0.00 0.00 0.00 0.00 0.00 0.00 0.00 0.00 0.00 0.00 0.00 0.00 0.00 0.00 0.00 0.00 0.01 0.02 0.02 0.01 0.01 0.00 0.00 0.00 0.00 0.02 0.03 0.01 0.00 0.01 0.01 0.00 0.00 0.01 0.02 0.02 0.03 0.04
0.00 0.00 0.00 0.00 0.00 0.00 0.00 0.00 0.00 0.00 0.00 0.00 0.00 0.00 0.01 0.00 0.01 0.01 0.01 0.01 0.00 0.00 0.00 0.00 0.00 0.01 0.01 0.00 0.00 0.01 0.00 0.00 0.00 0.01 0.01 0.01 0.01 0.02
0.00 0.00 0.00 0.00 0.00 0.00 0.00 0.00 0.00 0.00 0.00 0.00 0.00 0.01 0.00 0.00 0.00 0.00 0.00 0.00 0.00 0.00 0.00 0.00 0.00 0.00 0.00 0.00 0.00 0.01 0.00 0.00 0.00 0.00 0.00 0.00 0.01 0.01
0.00 0.00 0.00 0.00 0.00 0.00 0.00 0.00 0.00 0.00 0.00 0.00 0.00 0.00 0.00 0.00 0.00 0.00 0.00 0.00 0.00 0.00 0.00 0.00 0.00 0.00 0.00 0.00 0.00 0.00 0.00 0.00 0.00 0.01 0.00 0.00 0.00 0.00
0.00 0.00 0.00 0.00 0.00 0.00 0.00 0.00 0.00 0.00 0.00 0.00 0.00 0.00 0.00 0.00 0.00 0.00 0.00 0.00 0.00 0.00 0.00 0.00 0.00 0.00 0.00 0.00 0.00 0.00 0.00 0.00 0.00 0.00 0.00 0.00 0.00 0.00
0.00 0.00 0.00 0.00 0.00 0.00 0.00 0.00 0.00 0.00 0.00 0.00 0.00 0.00 0.00 0.00 0.00 0.00 0.00 0.00 0.00 0.00 0.00 0.00 0.00 0.00 0.00 0.00 0.00 0.00 0.00 0.00 0.00 0.00 0.00 0.00 0.00 0.00
0.00 0.00 0.00 0.00 0.00 0.00 0.00 0.00 0.00 0.00 0.00 0.00 0.00 0.00 0.00 0.00 0.00 0.00 0.00 0.00 0.00 0.00 0.00 0.00 0.00 0.00 0.00 0.00 0.00 0.00 0.00 0.00 0.00 0.00 0.00 0.00 0.00 0.00
0.00 0.00 0.00 0.00 0.00 0.00 0.00 0.00 0.00 0.00 0.00 0.00 0.00 0.00 0.00 0.00 0.00 0.00 0.00 0.00 0.00 0.00 0.00 0.00 0.00 0.00 0.00 0.00 0.00 0.00 0.00 0.00 0.00 0.00 0.00 0.01 0.01 0.01
0.00 0.00 0.00 0.00 0.00 0.00 0.00 0.00 0.00 0.00 0.00 0.00 0.00 0.00 0.00 0.00 0.00 0.00 0.00 0.00 0.00 0.00 0.00 0.00 0.00 0.00 0.00 0.00 0.00 0.00 0.00 0.00 0.00 0.00 0.00 0.01 0.01 0.02
0.00 0.00 0.00 0.00 0.00 0.00 0.00 0.00 0.00 0.00 0.00 0.00 0.00 0.00 0.00 0.00 0.00 0.00 0.00 0.00 0.00 0.00 0.00 0.00 0.00 0.00 0.00 0.00 0.00 0.00 0.00 0.00 0.00 0.00 0.00 0.00 0.01 0.01
MSLP
1020.25 1020.22 1020.27 1020.38 1020.54 1020.74 1020.93 1021.09 1021.21 1021.27 1021.27 1021.21 1021.10 1020.96 1020.80 1020.64 1020.50 1020.39 1020.31 1020.27 1020.27 1020.30 1020.36 1020.44 1020.53 1020.60 1020.67 1020.72 1020.75 1020.77 1020.78 1020.78 1020.79 1020.82 1020.86 1020.92 1020.99 1021.07
1020.75 1020.66 1020.64 1020.68 1020.78 1020.91 1021.07 1021.22 1021.35 1021.43 1021.47 1021.45 1021.39 1021.29 1021.16 1021.03 1020.90 1020.80 1020.73 1020.71 1020.72 1020.78 1020.87 1020.99 1021.10 1021.21 1021.30 1021.37 1021.40 1021.40 1021.38 1021.35 1021.31 1021.27 1021.24 1021.23 1021.22 1021.22
1021.23 1021.12 1021.04 1021.03 1021.07 1021.16 1021.28 1021.42 1021.56 1021.67 1021.75 1021.78 1021.77 1021.71 1021.61 1021.50 1021.39 1021.28 1021.21 1021.18 1021.19 1021.25 1021.34 1021.47 1021.60 1021.73 1021.83 1021.90 1021.94 1021.93 1021.89 1021.82 1021.74 1021.65 1021.56 1021.48 1021.40 1021.32
1021.68 1021.56 1021.46 1021.41 1021.41 1021.47 1021.57 1021.71 1021.86 1022.00 1022.11 1022.19 1022.22 1022.20 1022.14 1022.05 1021.94 1021.83 1021.73 1021.67 1021.66 1021.69 1021.77 1021.87 1021.99 1022.11 1022.22 1022.29 1022.31 1022.29 1022.24 1022.15 1022.04 1021.92 1021.79 1021.66 1021.53 1021.39
1022.08 1021.96 1021.86 1021.80 1021.78 1021.83 1021.92 1022.06 1022.21 1022.38 1022.52 1022.64 1022.71 1022.73 1022.69 1022.61 1022.50 1022.38 1022.26 1022.17 1022.11 1022.10 1022.14 1022.20 1022.29 1022.38 1022.46 1022.51 1022.52 1022.49 1022.42 1022.32 1022.19 1022.06 1021.91 1021.76 1021.61 1021.44
1022.38 1022.29 1022.21 1022.16 1022.15 1022.19 1022.28 1022.41 1022.57 1022.74 1022.91 1023.04 1023.14 1023.19 1023.17 1023.11 1023.01 1022.88 1022.74 1022.62 1022.53 1022.47 1022.46 1022.47 1022.51 1022.56 1022.60 1022.62 1022.60 1022.55 1022.47 1022.36 1022.23 1022.09 1021.95 1021.81 1021.66 1021.49
1022.59 1022.54 1022.49 1022.46 1022.46 1022.50 1022.58 1022.70 1022.85 1023.02 1023.18 1023.33 1023.44 1023.50 1023.51 1023.46 1023.37 1023.25 1023.12 1022.98 1022.87 1022.78 1022.72 1022.70 1022.69 1022.69 1022.68 1022.66 1022.62 1022.54 1022.44 1022.33 1022.20 1022.08 1021.95 1021.83 1021.70 1021.56
1022.71 1022.69 1022.68 1022.67 1022.68 1022.72 1022.79 1022.89 1023.02 1023.16 1023.30 1023.43 1023.54 1023.61 1023.64 1023.62 1023.56 1023.47 1023.35 1023.23 1023.12 1023.02 1022.94 1022.89 1022.84 1022.80 1022.76 1022.70 1022.62 1022.52 1022.41 1022.28 1022.16 1022.05 1021.95 1021.85 1021.75 1021.63
1022.73 1022.76 1022.77 1022.79 1022.81 1022.84 1022.90 1022.97 1023.06 1023.16 1023.27 1023.37 1023.47 1023.54 1023.58 1023.59 1023.57 1023.52 1023.45 1023.37 1023.28 1023.20 1023.13 1023.06 1023.00 1022.94 1022.86 1022.77 1022.67 1022.54 1022.41 1022.28 1022.16 1022.05 1021.96 1021.88 1021.81 1021.72
1022.70 1022.76 1022.80 1022.84 1022.87 1022.90 1022.93 1022.96 1023.01 1023.07 1023.13 1023.20 1023.27 1023.34 1023.40 1023.44 1023.46 1023.46 1023.44 1023.41 1023.38 1023.33 1023.29 1023.23 1023.17 1023.10 1023.01 1022.90 1022.78 1022.64 1022.49 1022.34 1022.21 1022.10 1022.00 1021.93 1021.86 1021.79
1022.65 1022.73 1022.81 1022.86 1022.91 1022.93 1022.95 1022.95 1022.96 1022.97 1022.99 1023.02 1023.07 1023.13 1023.20 1023.26 1023.32 1023.37 1023.41 1023.43 1023.44 1023.44 1023.43 1023.40 1023.36 1023.29 1023.20 1023.08 1022.95 1022.79 1022.63 1022.46 1022.31 1022.18 1022.07 1021.98 1021.90 1021.82
1022.61 1022.73 1022.83 1022.92 1022.98 1023.01 1023.01 1023.00 1022.97 1022.95 1022.94 1022.94 1022.97 1023.02 1023.08 1023.16 1023.24 1023.33 1023.40 1023.47 1023.52 1023.55 1023.57 1023.56 1023.54 1023.48 1023.39 1023.28 1023.14 1022.97 1022.80 1022.62 1022.44 1022.28 1022.14 1022.02 1021.91 1021.80
1022.60 1022.76 1022.91 1023.02 1023.11 1023.16 1023.17 1023.15 1023.12 1023.07 1023.04 1023.02 1023.03 1023.07 1023.13 1023.20 1023.30 1023.39 1023.48 1023.56 1023.62 1023.67 1023.70 1023.71 1023.69 1023.64 1023.56 1023.45 1023.31 1023.14 1022.95 1022.76 1022.56 1022.37 1022.19 1022.03 1021.87 1021.72
1022.63 1022.84 1023.03 1023.19 1023.31 1023.39 1023.42 1023.41 1023.38 1023.34 1023.30 1023.27 1023.27 1023.29 1023.34 1023.40 1023.48 1023.56 1023.63 1023.70 1023.75 1023.79 1023.81 1023.80 1023.78 1023.73 1023.66 1023.55 1023.41 1023.25 1023.06 1022.85 1022.63 1022.41 1022.19 1021.98 1021.78 1021.58
1022.68 1022.94 1023.18 1023.38 1023.54 1023.65 1023.71 1023.73 1023.72 1023.69 1023.66 1023.63 1023.62 1023.63 1023.66 1023.70 1023.75 1023.79 1023.83 1023.86 1023.87 1023.87 1023.86 1023.83 1023.79 1023.74 1023.66 1023.56 1023.42 1023.26 1023.08 1022.86 1022.63 1022.38 1022.13 1021.88 1021.63 1021.38
1022.72 1023.02 1023.30 1023.55 1023.74 1023.89 1023.98 1024.02 1024.04 1024.02 1024.01 1023.99 1023.98 1023.98 1023.99 1024.00 1024.01 1024.01 1024.00 1023.97 1023.94 1023.89 1023.84 1023.78 1023.71 1023.64 1023.55 1023.45 1023.33 1023.17 1022.99 1022.78 1022.53 1022.27 1021.99 1021.70 1021.40 1021.11
1022.69 1023.03 1023.34 1023.61 1023.84 1024.00 1024.12 1024.18 1024.22 1024.23 1024.22 1024.21 1024.21 1024.20 1024.20 1024.18 1024.16 1024.12 1024.06 1023.99 1023.90 1023.81 1023.71 1023.61 1023.52 1023.43 1023.34 1023.24 1023.11 1022.97 1022.79 1022.58 1022.33 1022.05 1021.75 1021.43 1021.10 1020.77
1022.55 1022.91 1023.24 1023.52 1023.75 1023.92 1024.05 1024.12 1024.17 1024.19 1024.20 1024.20 1024.20 1024.20 1024.19 1024.16 1024.11 1024.05 1023.96 1023.85 1023.73 1023.60 1023.47 1023.35 1023.24 1023.13 1023.03 1022.93 1022.80 1022.66 1022.48 1022.27 1022.02 1021.73 1021.41 1021.06 1020.71 1020.35
1022.29 1022.64 1022.96 1023.24 1023.46 1023.62 1023.74 1023.81 1023.86 1023.88 1023.90 1023.91 1023.92 1023.93 1023.92 1023.89 1023.85 1023.78 1023.68 1023.56 1023.42 1023.28 1023.14 1023.01 1022.88 1022.77 1022.66 1022.55 1022.42 1022.27 1022.09 1021.86 1021.60 1021.30 1020.96 1020.60 1020.22 1019.84
1021.89 1022.23 1022.52 1022.77 1022.96 1023.10 1023.20 1023.26 1023.30 1023.33 1023.35 1023.37 1023.40 1023.41 1023.42 1023.42 1023.39 1023.33 1023.25 1023.15 1023.02 1022.89 1022.75 1022.62 1022.49 1022.37 1022.25 1022.12 1021.98 1021.81 1021.61 1021.37 1021.09 1020.77 1020.41 1020.03 1019.64 1019.23
1021.38 1021.68 1021.95 1022.16 1022.32 1022.43 1022.50 1022.55 1022.58 1022.61 1022.63 1022.67 1022.71 1022.75 1022.79 1022.81 1022.81 1022.79 1022.75 1022.67 1022.58 1022.47 1022.35 1022.22 1022.10 1021.97 1021.83 1021.68 1021.52 1021.32 1021.08 1020.81 1020.50 1020.15 1019.77 1019.37 1018.96 1018.55
1020.79 1021.06 1021.29 1021.47 1021.60 1021.69 1021.75 1021.78 1021.81 1021.84 1021.88 1021.93 1021.99 1022.06 1022.13 1022.19 1022.23 1022.25 1022.25 1022.21 1022.15 1022.07 1021.97 1021.86 1021.73 1021.58 1021.42 1021.24 1021.03 1020.79 1020.51 1020.20 1019.85 1019.47 1019.06 1018.64 1018.21 1017.79
1020.18 1020.42 1020.63 1020.79 1020.91 1020.99 1021.04 1021.08 1021.11 1021.16 1021.21 1021.29 1021.37 1021.47 1021.57 1021.67 1021.75 1021.80 1021.83 1021.83 1021.80 1021.74 1021.65 1021.54 1021.40 1021.23 1021.03 1020.81 1020.55 1020.25 1019.92 1019.56 1019.17 1018.75 1018.31 1017.87 1017.43 1016.99
Thickness
5689 5689 5687 5686 5686 5685 5684 5681 5677 5671 5670 5673 5676 5679 5681 5683 5684 5686 5687 5689 5690 5692 5694 5695 5697 5699 5700 5701 5702 5703 5704 5705 5707 5708 5709 5710 5711 5712
5688 5687 5686 5685 5684 5684 5683 5681 5680 5675 5670 5670 5672 5675 5677 5679 5680 5682 5683 5684 5685 5687 5689 5690 5692 5693 5694 5695 5696 5697 5698 5699 5700 5701 5702 5703 5704 5705
5687 5686 5684 5683 5682 5681 5681 5679 5678 5676 5671 5669 5670 5672 5673 5674 5675 5677 5679 5680 5681 5682 5684 5685 5687 5688 5689 5690 5690 5691 5691 5692 5693 5694 5695 5696 5697 5698
5684 5684 5682 5682 5680 5679 5678 5677 5675 5674 5671 5667 5667 5667 5668 5669 5670 5672 5673 5675 5676 5677 5678 5680 5681 5682 5683 5683 5684 5684 5685 5685 5686 5687 5688 5689 5689 5690
5682 5681 5680 5679 5677 5676 5676 5674 5673 5672 5669 5666 5663 5662 5662 5664 5665 5667 5668 5669 5670 5671 5672 5673 5674 5675 5676 5676 5677 5677 5677 5677 5678 5679 5680 5681 5682 5683
5680 5679 5678 5677 5676 5675 5674 5672 5670 5668 5665 5663 5660 5658 5658 5659 5660 5659 5661 5662 5662 5664 5665 5665 5666 5667 5668 5669 5669 5669 5669 5669 5669 5670 5671 5672 5674 5675
5678 5677 5676 5676 5675 5674 5672 5669 5667 5664 5661 5659 5656 5655 5654 5654 5653 5653 5653 5654 5655 5655 5656 5657 5658 5659 5660 5661 5661 5661 5661 5661 5661 5661 5662 5664 5665 5667
5674 5673 5673 5673 5673 5672 5670 5668 5666 5662 5659 5656 5652 5651 5650 5649 5648 5649 5647 5647 5647 5647 5647 5648 5649 5649 5650 5651 5652 5652 5652 5652 5652 5652 5652 5654 5655 5657
5672 5670 5670 5669 5668 5667 5666 5665 5662 5661 5659 5655 5651 5649 5647 5646 5645 5643 5642 5640 5638 5639 5638 5638 5639 5639 5641 5641 5642 5642 5642 5642 5642 5642 5642 5643 5645 5647
5669 5668 5666 5665 5665 5663 5661 5659 5657 5655 5654 5652 5650 5647 5646 5644 5642 5639 5636 5633 5632 5631 5630 5628 5629 5630 5631 5632 5632 5632 5631 5631 5631 5631 5632 5632 5634 5635
5666 5665 5664 5662 5662 5660 5657 5654 5652 5650 5649 5647 5646 5643 5642 5640 5637 5634 5630 5627 5624 5623 5621 5619 5620 5620 5622 5623 5622 5621 5620 5620 5620 5620 5620 5621 5622 5623
5662 5661 5660 5659 5658 5656 5652 5649 5646 5644 5643 5641 5639 5638 5636 5633 5631 5628 5624 5619 5616 5614 5613 5611 5610 5610 5612 5614 5613 5611 5610 5610 5609 5609 5608 5608 5609 5610
5658 5657 5656 5655 5654 5651 5649 5645 5643 5641 5637 5635 5632 5630 5628 5626 5623 5620 5617 5613 5609 5606 5605 5603 5601 5599 5598 5601 5602 5601 5599 5598 5597 5597 5596 5596 5595 5594
5656 5654 5652 5651 5649 5646 5644 5641 5638 5635 5631 5628 5624 5622 5619 5617 5615 5612 5610 5607 5603 5600 5598 5594 5591 5589 5587 5587 5589 5590 5588 5586 5585 5584 5583 5583 5581 5580
5653 5651 5648 5646 5643 5640 5638 5636 5632 5628 5624 5620 5617 5614 5612 5609 5607 5604 5601 5598 5595 5592 5589 5586 5582 5579 5576 5574 5575 5575 5574 5575 5572 5570 5569 5568 5566 5565
5647 5645 5642 5639 5636 5634 5631 5628 5625 5621 5617 5613 5610 5607 5604 5601 5598 5595 5591 5588 5585 5583 5580 5577 5573 5570 5567 5565 5562 5562 5560 5558 5559 5556 5555 5554 5552 5549
5640 5636 5633 5630 5627 5624 5622 5619 5616 5613 5609 5605 5602 5598 5595 5592 5589 5585 5581 5577 5573 5571 5570 5567 5563 5560 5557 5554 5552 5551 5548 5546 5543 5540 5539 5540 5540 5535
5634 5628 5625 5622 5620 5617 5614 5611 5608 5605 5601 5598 5594 5590 5586 5583 5579 5575 5571 5567 5563 5561 5558 5555 5551 5549 5547 5546 5541 5538 5535 5532 5530 5526 5522 5521 5526 5524
5626 5623 5619 5616 5613 5610 5607 5603 5601 5598 5594 5589 5585 5581 5577 5573 5569 5565 5561 5556 5553 5550 5547 5542 5537 5533 5532 5535 5535 5526 5520 5518 5515 5513 5510 5507 5508 5511
5620 5617 5614 5611 5607 5603 5600 5596 5593 5589 5585 5580 5576 5572 5568 5564 5559 5555 5551 5546 5542 5539 5535 5531 5525 5520 5517 5517 5518 5517 5508 5502 5500 5499 5498 5496 5495 5495
5613 5611 5608 5604 5600 5597 5593 5589 5585 5581 5576 5572 5568 5563 5558 5553 5549 5545 5540 5536 5531 5526 5523 5521 5516 5510 5504 5500 5499 5503 5500 5492 5485 5482 5481 5480 5482 5483
5607 5604 5600 5597 5593 5589 5585 5580 5575 5571 5567 5562 5558 5553 5548 5543 5538 5534 5528 5523 5518 5514 5511 5508 5503 5496 5490 5486 5487 5488 5487 5483 5477 5471 5466 5462 5460 5465
5600 5596 5592 5588 5584 5580 5575 5571 5566 5562 5557 5553 5548 5543 5538 5532 5527 5522 5516 5511 5506 5501 5497 5493 5489 5483 5478 5474 5472 5472 5471 5469 5466 5464 5462 5455 5450 5449